Simultaneous Nadir Overpasses (SNOs) Predictions

Prediction of SNOs between AQUA and GOES-15 Satellite Orbit:

Table of predicted SNOs for the next 14.0 days since TLE Epoch: 1/9/2021
Index Date Time (AQUA) AQUA Lat,Lon GOES-15 Lat,Lon Distance(km) Time Diff (sec)
1 01/10/2021 21:57:54 0.30,-125.66 -0.23,-128.16 283.99 80
2 01/11/2021 10:19:08 0.86,-130.80 0.26,-128.10 307.44 80
3 01/13/2021 10:06:57 0.19,-127.85 0.26,-128.07 25.16 80
4 01/15/2021 09:54:45 -0.42,-124.89 0.25,-128.03 357.40 80
5 01/15/2021 22:16:09 -0.71,-130.08 -0.29,-128.07 227.96 80
6 01/17/2021 22:03:57 -0.09,-127.11 -0.28,-128.03 104.34 80
7 01/18/2021 10:25:11 1.25,-132.25 0.31,-127.97 487.42 80
8 01/19/2021 21:51:45 0.54,-124.15 -0.28,-127.99 436.54 80
9 01/20/2021 10:13:00 0.57,-129.30 0.31,-127.93 155.37 80
10 01/22/2021 10:00:48 -0.05,-126.34 0.31,-127.89 176.31 80
11 01/22/2021 22:22:11 -1.12,-131.52 -0.34,-127.92 409.22 80
